Other Public Products
Issued by NWS Grand Forks, ND

Home | Current Version | Previous Version | Graphics & Text | Print | Product List | Glossary On
Versions: 1 2 3 4 5 6 7 8 9 10 11 12 13 14 15 16 17 18 19 20 21 22 23 24 25 26 27 28 29 30 31 32 33 34 35 36 37 38 39 40 41 42 43 44 45 46 47 48 49 50
000
FPUS83 KFGF 191810
OPUFGF
PRAIRIE TO PINES WEATHER ROUNDUP
NATIONAL WEATHER SERVICE EASTERN NORTH DAKOTA/GRAND FORKS ND
1200 PM CST THU JAN 19 2017

 **SATELLITE DATA USED TO AUGMENT SKY COVER AT AUTOMATED STATIONS**
 *****  WEATHER ACROSS EASTERN NORTH DAKOTA  *****

CITY           SKY/WX    TMP DP  RH WIND       PRES   REMARKS
GRAND FORKS    CLOUDY    26  22  84 S21       29.56F FOG     WCI  12
6HR MIN TEMP:  22; 6HR MAX TEMP:  26;

GRAND FORKS AF PTSUNNY   25  24  93 S10       29.55F WCI  15
GRAND CITY NWS NOT AVBL
BUXTON         NOT AVBL
DEVILS LAKE    FAIR      31  23  72 S5        29.50F
6HR MIN TEMP:  16; 6HR MAX TEMP:  31;

FARGO          FAIR      36  32  85 S12       29.60F
6HR MIN TEMP:  25; 6HR MAX TEMP:  36;

WAHPETON ARPT  FAIR      34  32  93 SE10      29.63F
$$

 *****  WEATHER ACROSS CENTRAL AND WESTERN NORTH DAKOTA  *****

CITY           SKY/WX    TMP DP  RH WIND       PRES   REMARKS
JAMESTOWN      FAIR      23  19  85 S5        29.54F WCI  17
6HR MIN TEMP:  15; 6HR MAX TEMP:  23;

BISMARCK       FAIR      20  14  77 SE6       29.54S WCI  12
6HR MIN TEMP:   8; 6HR MAX TEMP:  24;

MINOT          FAIR      38  28  67 S10       29.45F
6HR MIN TEMP:  22; 6HR MAX TEMP:  38;

MINOT AFB      FAIR      32  27  81 W7        29.45F
6HR MIN TEMP:  21; 6HR MAX TEMP:  33;

GARRISON         N/A     20  16  84 CALM      29.49S
6HR MIN TEMP:  12; 6HR MAX TEMP:  23;

WILLISTON      FAIR      29  19  66 CALM      29.49F
6HR MIN TEMP:  13; 6HR MAX TEMP:  29;

DICKINSON      FAIR      30  21  69 W3        29.46F
6HR MIN TEMP:  19; 6HR MAX TEMP:  31;

HETTINGER      FAIR      26  18  71 W6        29.50F WCI  19
6HR MIN TEMP:   6; 6HR MAX TEMP:  26;

$$

 *****  OTHER OBSERVATIONS NORTHEAST NORTH DAKOTA  *****

CITY           SKY/WX    TMP DP  RH WIND       PRES   REMARKS
WALHALLA       NOT AVBL
LANGDON        NOT AVBL
CAVALIER         N/A     25  21  86 S12       29.53S WCI  14
GRAFTON        CLOUDY    23  23 100 S18       29.57F FOG     WCI   9
CANDO          NOT AVBL
FORT TOTTEN      N/A     33  21  62 S8        29.95S
ROLLA            N/A    N/A N/A N/A MISG        N/A
RUGBY            N/A     27  21  80 S5        29.48F WCI  21
 ***** THE ABOVE OBSERVATIONS ARE NON NWS ARE NOT QUALITY
        CONTROLLED AND MAY MIS-REPORT RAIN FOR SNOW...
$$

 *****  OTHER OBSERVATIONS SOUTHEAST NORTH DAKOTA *****

CITY           SKY/WX    TMP DP  RH WIND       PRES   REMARKS
COOPERSTOWN    FAIR      25  21  86 S14       29.54F WCI  13
VALLEY CITY    FOG       25  25 100 S13       29.57F VSB 1/2 WCI  13
OAKES          NOT AVBL
GWINNER        FAIR      32  32 100 CALM      29.60S
SHEYENNE NWR     N/A     29  25  86 CALM      29.95S
BUFFALO        NOT AVBL
WYNDMERE       NOT AVBL
 ***** THE ABOVE OBSERVATIONS ARE NON NWS ARE NOT QUALITY
       CONTROLLED AND MAY MIS-REPORT RAIN FOR SNOW...
$$

  *****  WEATHER ACROSS NORTHERN MINNESOTA  *****

CITY           SKY/WX    TMP DP  RH WIND       PRES   REMARKS
FLAG ISLAND    FAIR      28  25  86 S18       29.58F WCI  16
WARROAD        FAIR      36  30  80 S9        29.59F
ROSEAU         CLOUDY    30  27  86 S17       29.58F FOG     WCI  18
HALLOCK        CLOUDY    28  27  93 S21       29.55F FOG     WCI  15
THF RVR FALLS  CLOUDY    35  33  92 S15       29.60F FOG
6HR MIN TEMP:  24; 6HR MAX TEMP:  35; 6HR PCP: TRACE;

HALSTAD        NOT AVBL
FOSSTON        FAIR      37  30  75 S12       29.60F
BAUDETTE       CLOUDY    31  29  92 S10       29.61F FOG     WCI  22
6HR MIN TEMP:  25; 6HR MAX TEMP:  31;

WASKISH        CLOUDY    36  32  87 S3        29.63F
CROOKSTON      FAIR      32  32 100 S16       29.60F FOG     WCI  21
$$
  *****  WEATHER ACROSS CENTRAL AND WEST MINNESOTA  *****

CITY           SKY/WX    TMP DP  RH WIND       PRES   REMARKS
BEMIDJI        CLOUDY    34  33  95 S10       29.63F
PARK RAPIDS    CLOUDY    35  33  92 S8        29.64F FOG
6HR MIN TEMP:  29; 6HR MAX TEMP:  35;

WADENA         FAIR      39  36  87 S8        29.65F
DETROIT LAKES  FAIR      37  34  87 SE9       29.63F
MOORHEAD       FAIR      34  30  86 S10       29.62F
FERGUS FALLS   FAIR      37  36  93 S14       29.67F
ELBOW LAKE     FAIR      35  33  92 E12       29.63F FOG
6HR MIN TEMP:  28; 6HR MAX TEMP:  35;

MORRIS MN      FAIR      37  34  87 SE14      29.64F
STAPLES        FAIR      37  34  87 S9        29.67F
WHEATON        FAIR      43  39  87 SE15      29.64F
$$
  *****  WEATHER ELSEWHERE ACROSS MINNESOTA  *****

CITY           SKY/WX    TMP DP  RH WIND       PRES   REMARKS
DULUTH         FAIR      39  35  86 S9        29.71F
6HR MIN TEMP:  33; 6HR MAX TEMP:  39;

INTRNTL FALLS  CLOUDY    34  31  88 VRB5      29.63F FOG
6HR MIN TEMP:  22; 6HR MAX TEMP:  34;

ELY            CLOUDY    36  34  93 SW7       29.68F
CLOQUET        FAIR      39  32  75 S7        29.71F
BRAINERD       FAIR      38  34  85 S9        29.69F
6HR MIN TEMP:  32; 6HR MAX TEMP:  38;

HIBBING        FOG       33  33 100 S9        29.68F VSB 1/4
6HR MIN TEMP:  30; 6HR MAX TEMP:  33;

ALEXANDRIA     FAIR      38  34  85 S12       29.66F
6HR MIN TEMP:  30; 6HR MAX TEMP:  38;

SAINT CLOUD    FAIR      38  34  85 SE13      29.72F
6HR MIN TEMP:  23; 6HR MAX TEMP:  38;

MINNEAPOLIS    FAIR      35  31  85 SE10      29.78F
6HR MIN TEMP:  30; 6HR MAX TEMP:  36;

$$

  *****  WEATHER ACROSS SOUTH DAKOTA  *****

CITY           SKY/WX    TMP DP  RH WIND       PRES   REMARKS
SIOUX FALLS    FOG       36  36 100 S14       29.68F VSB 1/4
6HR MIN TEMP:  35; 6HR MAX TEMP:  36;

BROOKINGS      FOG       35  33  92 S16       29.64F VSB 1/4
WATERTOWN      FAIR      34  33  96 S14       29.60F WCI  25
6HR MIN TEMP:  28; 6HR MAX TEMP:  34;

HURON          FOG       34  34 100 S17       29.59F VSB 1/2 WCI  23
6HR MIN TEMP:  33; 6HR MAX TEMP:  35;

SISSETON         N/A     38  36  92 S10       29.59F
ABERDEEN       FOG       33  31  92 S10       29.59S VSB 3/4 WCI  25
6HR MIN TEMP:  15; 6HR MAX TEMP:  34;

MITCHELL       FOG       37  37 100 S17G24    29.62F VSB 1/2
PIERRE         FAIR      21  19  92 CALM      29.53F
6HR MIN TEMP:   8; 6HR MAX TEMP:  22;

MOBRIDGE       FAIR      17  11  77 CALM      29.51F
RAPID CITY     FAIR      43  27  53 N7        29.47F
6HR MIN TEMP:  21; 6HR MAX TEMP:  45;

$$

  *****  SOME WEATHER IN NEARBY STATES *****

CITY           SKY/WX    TMP DP  RH WIND       PRES   REMARKS
GLASGOW MT     FAIR      25  19  78 W5        29.46R WCI  19
6HR MIN TEMP:  18; 6HR MAX TEMP:  26;

GREAT FALLS MT FAIR      41  28  60 MISG      29.47S
6HR MIN TEMP:  38; 6HR MAX TEMP:  42;

CHEYENNE WY    FAIR      50  14  23 S7        29.60S
6HR MIN TEMP:  32; 6HR MAX TEMP:  51;

SCOTTSBLUFF NE FAIR      43  27  53 CALM      29.57F
6HR MIN TEMP:  21; 6HR MAX TEMP:  43;

OMAHA NE       CLOUDY    41  38  89 SE10      29.76F FOG
6HR MIN TEMP:  30; 6HR MAX TEMP:  42;

DES MOINES IA  DRIZZLE   39  37  92 E5        29.79F FOG
6HR MIN TEMP:  32; 6HR MAX TEMP:  39; 6HR PCP:  0.04;

DAVENPORT IA   CLOUDY    39  36  89 E9        29.88F FOG
6HR MIN TEMP:  29; 6HR MAX TEMP:  39;

CHICAGO IL     CLOUDY    39  36  89 S5        29.94F FOG
6HR MIN TEMP:  33; 6HR MAX TEMP:  39;

EAU CLAIRE WI  FAIR      37  32  82 SE6       29.82F
6HR MIN TEMP:  28; 6HR MAX TEMP:  37;

LA CROSSE WI   CLOUDY    35  33  92 S10       29.87F FOG
6HR MIN TEMP:  34; 6HR MAX TEMP:  36;

$$

  *****  SOME NATIONAL WEATHER *****

CITY           SKY/WX    TMP DP  RH WIND       PRES   REMARKS
LA GUARDIA NY  FAIR      50  35  56 NW13      29.99F              C1F1C2F2C3F3C4F4C5F5C6F6C7F7C8F8C9F9CaFaCbFbCcFcCdFdCe!


USA.gov is the U.S. government's official web portal to all federal, state and local government web resources and services.